Weather History for Washington, PA

Change the Weather History Date:

Saturday, January 19, 2013

  Actual Average Record
Temperature  
Mean Temperature 42 °F -  
Max Temperature 51 °F 32 °F 57 °F (2006)
Min Temperature 33 °F 18 °F -4 °F (1997)
Degree Days  
Heating Degree Days 23    
Moisture  
Dew Point 17 °F    
Average Humidity 36    
Maximum Humidity 48    
Minimum Humidity 26    
Precipitation  
Precipitation 0.00 in - - ()
Sea Level Pressure  
Sea Level Pressure 30.08 in    
Wind  
Wind Speed 11 mph (SSW)    
Max Wind Speed 20 mph    
Max Gust Speed 33 mph    
Visibility 10 miles    
Events      
Averages and records for this station are not official NWS values.
T = Trace of Precipitation, MM = Missing Value Source: NWS Daily Summary

Daily Weather History Graph

Daily Weather History Graph

Search for Another Location

Airport:

Trip Planner

Search our weather history database for the weather conditions in past years. The results will help you decide how hot, cold, wet, or windy it might be!

Date:

Astronomy

Jan. 19, 2013 Rise Set
Actual Time 7:39 AM EST 5:24 PM EST
Civil Twilight 7:09 AM EST 5:54 PM EST
Nautical Twilight 6:36 AM EST 6:27 PM EST
Astronomical Twilight 6:04 AM EST 7:00 PM EST
Moon 11:50 AM EST (1/19) 1:12 AM EST (1/19)
Length of Visible Light 10h 44m
Length of Day
9h 45m
First Quarter, 57% of the Moon is Illuminated
Jan 19
First Quarter
Jan 26
Full
Feb 3
Last Quarter
Feb 10
New
Feb 17
First Quarter

Hourly Weather History & Observations

Time (EST) Temp. Windchill Dew Point Humidity Pressure Visibility Wind Dir Wind Speed Gust Speed Precip Events Conditions
12:15 AM 33.8 °F 25.8 °F 15.8 °F 48% 30.25 in 10.0 mi SSW 10.4 mph - N/A   Clear
12:35 AM 33.8 °F 27.0 °F 14.0 °F 44% 30.24 in 10.0 mi SSW 8.1 mph 17.3 mph N/A   Clear
12:55 AM 33.8 °F 25.3 °F 14.0 °F 44% 30.23 in 10.0 mi SSW 11.5 mph 17.3 mph N/A   Clear
1:15 AM 33.8 °F 25.8 °F 12.2 °F 41% 30.23 in 10.0 mi SSW 10.4 mph 16.1 mph N/A   Clear
1:35 AM 33.8 °F 27.0 °F 12.2 °F 41% 30.23 in 10.0 mi SSW 8.1 mph - N/A   Clear
1:55 AM 33.8 °F 25.8 °F 12.2 °F 41% 30.23 in 10.0 mi SSW 10.4 mph - N/A   Mostly Cloudy
2:15 AM 33.8 °F 25.8 °F 12.2 °F 41% 30.23 in 10.0 mi SSW 10.4 mph - N/A   Mostly Cloudy
2:35 AM 33.8 °F 27.7 °F 12.2 °F 41% 30.23 in 10.0 mi SSW 6.9 mph - N/A   Overcast
2:55 AM 35.6 °F 28.6 °F 12.2 °F 38% 30.22 in 10.0 mi SSW 9.2 mph - N/A   Overcast
3:15 AM 35.6 °F 28.6 °F 12.2 °F 38% 30.21 in 10.0 mi SSW 9.2 mph - N/A   Scattered Clouds
3:35 AM 35.6 °F 28.6 °F 12.2 °F 38% 30.21 in 10.0 mi SSW 9.2 mph - N/A   Clear
3:55 AM 35.6 °F 28.0 °F 12.2 °F 38% 30.21 in 10.0 mi SSW 10.4 mph - N/A   Clear
4:15 AM 35.6 °F 28.6 °F 14.0 °F 41% 30.20 in 10.0 mi SSW 9.2 mph - N/A   Scattered Clouds
4:35 AM 35.6 °F 29.2 °F 15.8 °F 44% 30.20 in 10.0 mi SSW 8.1 mph - N/A   Mostly Cloudy
4:55 AM 35.6 °F 28.6 °F 15.8 °F 44% 30.19 in 10.0 mi SSW 9.2 mph - N/A   Partly Cloudy
5:15 AM 37.4 °F 29.8 °F 15.8 °F 41% 30.19 in 10.0 mi SSW 11.5 mph 17.3 mph N/A   Partly Cloudy
5:35 AM 37.4 °F 28.5 °F 15.8 °F 41% 30.19 in 10.0 mi SSW 15.0 mph 19.6 mph N/A   Scattered Clouds
5:55 AM 37.4 °F 29.3 °F 15.8 °F 41% 30.18 in 10.0 mi SSW 12.7 mph 19.6 mph N/A   Clear
6:15 AM 37.4 °F 28.9 °F 15.8 °F 41% 30.19 in 10.0 mi SW 13.8 mph 20.7 mph N/A   Clear
6:35 AM 37.4 °F 30.3 °F 15.8 °F 41% 30.19 in 10.0 mi SSW 10.4 mph 17.3 mph N/A   Clear
7:15 AM 35.6 °F 27.5 °F 17.6 °F 48% 30.18 in 10.0 mi SSW 11.5 mph 19.6 mph N/A   Clear
7:35 AM 37.4 °F 30.3 °F 15.8 °F 41% 30.18 in 10.0 mi SSW 10.4 mph 17.3 mph N/A   Clear
7:55 AM 35.6 °F 27.5 °F 15.8 °F 44% 30.18 in 10.0 mi SW 11.5 mph 17.3 mph N/A   Clear
8:15 AM 37.4 °F 28.9 °F 17.6 °F 45% 30.18 in 10.0 mi SSW 13.8 mph 20.7 mph N/A   Clear
8:35 AM 37.4 °F 28.9 °F 17.6 °F 45% 30.18 in 10.0 mi SW 13.8 mph 23.0 mph N/A   Clear
8:55 AM 39.2 °F 31.6 °F 17.6 °F 42% 30.19 in 10.0 mi SSW 12.7 mph 20.7 mph N/A   Clear
9:15 AM 39.2 °F 31.2 °F 17.6 °F 42% 30.19 in 10.0 mi SW 13.8 mph 26.5 mph N/A   Clear
9:35 AM 41.0 °F 33.5 °F 17.6 °F 39% 30.19 in 10.0 mi SW 13.8 mph 20.7 mph N/A   Clear
9:55 AM 42.8 °F 37.0 °F 19.4 °F 39% 30.20 in 10.0 mi SSW 10.4 mph 19.6 mph N/A   Clear
10:15 AM 42.8 °F 37.5 °F 19.4 °F 39% 30.19 in 10.0 mi SW 9.2 mph 21.9 mph N/A   Clear
10:35 AM 44.6 °F 38.4 °F 19.4 °F 37% 30.19 in 10.0 mi SSW 12.7 mph 20.7 mph N/A   Clear
10:55 AM 44.6 °F 37.2 °F 19.4 °F 37% 30.18 in 10.0 mi SW 17.3 mph 23.0 mph N/A   Clear
11:15 AM 46.4 °F 40.7 °F 19.4 °F 34% 30.16 in 10.0 mi SSW 12.7 mph 20.7 mph N/A   Clear
11:35 AM 46.4 °F 39.2 °F 19.4 °F 34% 30.15 in 10.0 mi SW 18.4 mph 29.9 mph N/A   Clear
11:55 AM 48.2 °F - 19.4 °F 32% 30.13 in 10.0 mi SW 10.4 mph 21.9 mph N/A   Clear
12:15 PM 48.2 °F - 19.4 °F 32% 30.11 in 10.0 mi SW 15.0 mph 24.2 mph N/A   Clear
12:35 PM 48.2 °F - 19.4 °F 32% 30.09 in 10.0 mi SW 15.0 mph 25.3 mph N/A   Clear
12:55 PM 50.0 °F - 17.6 °F 28% 30.08 in 10.0 mi SW 18.4 mph 26.5 mph N/A   Clear
1:15 PM 51.8 °F - 17.6 °F 26% 30.07 in 10.0 mi SW 11.5 mph 26.5 mph N/A   Clear
1:35 PM 51.8 °F - 17.6 °F 26% 30.06 in 10.0 mi SSW 17.3 mph 23.0 mph N/A   Clear
1:55 PM 51.8 °F - 17.6 °F 26% 30.05 in 10.0 mi SW 11.5 mph 26.5 mph N/A   Clear
2:15 PM 51.8 °F - 19.4 °F 28% 30.04 in 10.0 mi SW 13.8 mph 26.5 mph N/A   Clear
2:35 PM 51.8 °F - 17.6 °F 26% 30.03 in 10.0 mi SW 19.6 mph 31.1 mph N/A   Clear
2:55 PM 51.8 °F - 19.4 °F 28% 30.02 in 10.0 mi SW 15.0 mph 28.8 mph N/A   Clear
3:15 PM 51.8 °F - 19.4 °F 28% 30.01 in 10.0 mi SW 16.1 mph 25.3 mph N/A   Clear
3:35 PM 51.8 °F - 19.4 °F 28% 30.00 in 10.0 mi SSW 19.6 mph 26.5 mph N/A   Clear
3:55 PM 51.8 °F - 19.4 °F 28% 29.99 in 10.0 mi SSW 12.7 mph 19.6 mph N/A   Clear
4:15 PM 51.8 °F - 19.4 °F 28% 29.98 in 10.0 mi SSW 10.4 mph 21.9 mph N/A   Clear
4:35 PM 51.8 °F - 19.4 °F 28% 29.98 in 10.0 mi SW 11.5 mph 23.0 mph N/A   Clear
4:55 PM 51.8 °F - 19.4 °F 28% 29.97 in 10.0 mi SW 11.5 mph 17.3 mph N/A   Clear
5:15 PM 50.0 °F - 17.6 °F 28% 29.96 in 10.0 mi SSW 5.8 mph - N/A   Clear
5:35 PM 48.2 °F - 17.6 °F 30% 29.96 in 10.0 mi SSW 8.1 mph - N/A   Clear
5:55 PM 48.2 °F - 17.6 °F 30% 29.95 in 10.0 mi SSW 9.2 mph - N/A   Clear
6:15 PM 48.2 °F - 17.6 °F 30% 29.95 in 10.0 mi SSW 8.1 mph - N/A   Clear
6:35 PM 48.2 °F - 17.6 °F 30% 29.94 in 10.0 mi SW 6.9 mph - N/A   Clear
6:55 PM 46.4 °F 41.9 °F 17.6 °F 32% 29.93 in 10.0 mi SSW 9.2 mph - N/A   Clear
7:15 PM 46.4 °F 41.5 °F 17.6 °F 32% 29.93 in 10.0 mi SSW 10.4 mph 17.3 mph N/A   Clear
7:35 PM 46.4 °F 41.9 °F 19.4 °F 34% 29.92 in 10.0 mi SSW 9.2 mph - N/A   Clear
7:55 PM 46.4 °F 40.4 °F 19.4 °F 34% 29.91 in 10.0 mi SSW 13.8 mph 24.2 mph N/A   Clear
8:15 PM 46.4 °F 41.9 °F 19.4 °F 34% 29.90 in 10.0 mi SSW 9.2 mph 21.9 mph N/A   Clear
8:35 PM 46.4 °F 41.5 °F 19.4 °F 34% 29.89 in 10.0 mi SSW 10.4 mph 20.7 mph N/A   Clear
8:55 PM 46.4 °F 40.4 °F 19.4 °F 34% 29.88 in 10.0 mi SSW 13.8 mph 24.2 mph N/A   Clear
9:15 PM 46.4 °F 39.5 °F 19.4 °F 34% 29.88 in 10.0 mi SSW 17.3 mph 27.6 mph N/A   Clear
9:35 PM 48.2 °F - 19.4 °F 32% 29.88 in 10.0 mi SSW 13.8 mph 25.3 mph N/A   Clear
9:55 PM 46.4 °F 40.7 °F 19.4 °F 34% 29.87 in 10.0 mi SSW 12.7 mph 26.5 mph N/A   Clear
10:15 PM 46.4 °F 39.5 °F 21.2 °F 37% 29.88 in 10.0 mi SW 17.3 mph 26.5 mph N/A   Clear
10:35 PM 46.4 °F 39.0 °F 21.2 °F 37% 29.87 in 10.0 mi SW 19.6 mph 25.3 mph N/A   Clear
10:55 PM 46.4 °F 40.1 °F 21.2 °F 37% 29.87 in 10.0 mi SW 15.0 mph 28.8 mph N/A   Clear
11:15 PM 46.4 °F 39.2 °F 21.2 °F 37% 29.86 in 10.0 mi SW 18.4 mph 26.5 mph N/A   Clear
11:35 PM 46.4 °F 39.8 °F 21.2 °F 37% 29.86 in 10.0 mi SW 16.1 mph 24.2 mph N/A   Clear
11:55 PM 44.6 °F 37.2 °F 21.2 °F 39% 29.85 in 10.0 mi SW 17.3 mph 33.4 mph N/A   Clear